Regional Weather Roundup
Issued by NWS

Home | Current Version | Previous Version | Text Only | Print | Product List | Glossary Off
Versions: 1 2 3 4 5 6 7 8 9 10 11 12 13 14 15 16 17 18 19 20 21 22 23 24 25 26 27 28 29 30 31 32 33 34 35 36 37 38 39 40 41 42 43 44 45 46 47 48 49 50

000
ASUS43 KFSD 192210
RWRSD

WEATHER ROUNDUP FOR SOUTH DAKOTA
NATIONAL WEATHER SERVICE SIOUX FALLS SD
500 PM CDT SAT AUG 19 2017

NOTE: "FAIR" INDICATES FEW OR NO CLOUDS BELOW 12,000 FEET WITH NO
SIGNIFICANT WEATHER AND/OR OBSTRUCTIONS TO VISIBILITY.


SDZ001>005-009-010-012>017-192300-
NORTHWEST AND NORTH CENTRAL SOUTH DAKOTA

CITY           SKY/WX    TMP DP  RH WIND       PRES   REMARKS
BUFFALO          N/A     88  38  17 NW18      29.82S
FAITH            N/A     95  40  14 N20G25    29.79S
MOBRIDGE       SUNNY     88  66  48 S12       29.73F
$$

SDZ012>016-024>037-041>051-057-063-072>074-192300-
SOUTHWEST AND SOUTH CENTRAL SOUTH DAKOTA

CITY           SKY/WX    TMP DP  RH WIND       PRES   REMARKS
RAPID CTY ARPT SUNNY     94  42  16 NW8       29.85S
PIERRE         SUNNY     92  59  33 SE12      29.74F
CUSTER         SUNNY     84  42  22 SE7G17    30.03F
ELLSWORTH AFB  SUNNY     91  47  21 W9        29.85S
PHILIP         SUNNY    100  38  11 N8        29.75F HX  95
PINE RIDGE     SUNNY     96  34  11 SE5       29.86S
SPEARFISH      FAIR      90  39  17 N18       29.92S
WINNER         FAIR      90  65  43 SE16      29.78F
$$

SDZ004>011-016>023-039-040-192300-
NORTHEAST SOUTH DAKOTA

CITY           SKY/WX    TMP DP  RH WIND       PRES   REMARKS
ABERDEEN       SUNNY     82  62  50 S15       29.79F
WATERTOWN      SUNNY     78  61  55 SE15G22   29.83F
BROOKINGS      SUNNY     78  63  59 SE15      29.86F
SISSETON         N/A     81  63  54 SE17      29.79F
$$

SDZ017-020-022-023-036>040-048>070-192300-
SOUTHEAST SOUTH DAKOTA

CITY           SKY/WX    TMP DP  RH WIND       PRES   REMARKS
SIOUX FALLS    MOSUNNY   80  63  55 S17       29.86F
HURON          SUNNY     82  62  50 S16G25    29.80F
CHAMBERLAIN    SUNNY     89  67  48 SE16      29.79S
MITCHELL       SUNNY     83  60  45 S18G24    29.82S
YANKTON        SUNNY     83  65  54 SE16G23   29.83F
$$

ABBREVIATIONS USED IN REMARKS
   TC - TEMPERATURE IN CELSIUS
  WCI - WIND CHILL INDEX
   HX - HEAT INDEX
  VSB - VISIBILITY




USA.gov is the U.S. government's official web portal to all federal, state and local government web resources and services.